Regional Weather Roundup
Issued by NWS Pendleton, OR

Home | Current Version | Previous Version | Text Only | Print | Product List | Glossary On
Versions: 1 2 3 4 5 6 7 8 9 10 11 12 13 14 15 16 17 18 19 20 21 22 23 24 25 26 27 28 29 30 31 32 33 34 35 36 37 38 39 40 41 42 43 44 45 46 47 48 49 50
000
ASUS46 KPDT 041925
RWRPDT
PENDLETON REGIONAL WEATHER ROUNDUP
NATIONAL WEATHER SERVICE PENDLETON OREGON
1200 PM PDT FRI SEP 4 2015

NOTE: FAIR INDICATES FEW OR NO CLOUDS BELOW 12,000 FEET WITH NO
SIGNIFICANT WEATHER AND/OR OBSTRUCTIONS TO VISIBILITY.

# INDICATES UNOFFICIAL STATION AND DATA

WAZ520-042010-
EAST SLOPES OF WASHINGTON CASCADES

CITY            SKY/WX      TMP DP  RH  WIND    PRES   REMARKS
#BULLFROG 2SW   N/A         54  44  69  CALM    27.56S
#BUMPING DAM    N/A         50  N/A N/A S1      N/A
#CLE ELUM HS    N/A         57  40  53  CALM    29.91S
#CLE ELUM LAKE  N/A         58  40  51  SW3     29.90F
#CLIFFDEL 2NW   N/A         54  38  55  S2      N/A
#GLENWOOD       N/A         59  42  53  CALM    29.92F
#MANASTASH CYN  N/A         53  34  48  CALM    29.93R
#NELSON 3SW     N/A         53  40  61  CALM    30.13F
#NILE           N/A         57  38  49  S1      29.19S
#RONALD 2NW     N/A         56  39  53  S2      29.82S
#SNOWDEN        N/A         58  23  26  W1      N/A
#TEANAWAY 4NE   N/A         57  42  57  CALM    N/A
#TROUT LAKE 1NE N/A         59  37  44  E5      29.92F
$$

WAZ521-042010-
SIMCOE HIGHLANDS

CITY            SKY/WX      TMP DP  RH  WIND    PRES   REMARKS
#BICKLETON HS   N/A         56  29  35  E7      N/A
#CENTERVILLE 4W N/A         61  40  46  W5      29.67F
#CENTERVILLE 1SWN/A         60  37  42  SW3     29.86F
#GOLDENDALE     N/A         58  39  49  W3      N/A
#GOLDENDALE 1NE N/A         61  29  30  SW2     N/A
#GOLDENDALE 5WNWN/A         60  39  46  SW5     29.88F
#GOODNOE HILLS  N/A         68  41  37  E5      N/A
#LYLE 6NE       N/A         57  45  64  S5      29.88F
$$

WAZ026-042010-
KITTITAS VALLEY

CITY            SKY/WX      TMP DP  RH  WIND    PRES   REMARKS
ELLENSBURG AP   MOCLDY      59  39  47  SW9     29.94F
#ELLENSBURG CWU N/A         57  41  55  E1      29.88F
#ELLENSBURG 3NE N/A         56  41  57  CALM    29.95F
#ELLENSBURG 1E  N/A         56  41  57  CALM    N/A
#KITTITAS 4N    N/A         61  39  44  NW1     29.93F
#KITTITAS 3S    N/A         55  45  69  CALM    29.92F
#THORP 6N       N/A         56  41  57  S5      29.95S
$$

WAZ027-042010-
YAKIMA VALLEY

CITY            SKY/WX      TMP DP  RH  WIND    PRES   REMARKS
SUNNYSIDE AP    PTCLDY      64  43  46  S3      29.91F
YAKIMA AIRPORT  CLOUDY      60  41  49  W8      29.94F
YAKIMA-VAGABOND MOCLDY      57  41  55  W6      29.93F
#DONALD 2NE     N/A         64  34  33  S2      28.78S
#GRANDVIEW      N/A         64  40  41  CALM    29.91F
#MABTON         N/A         63  44  50  N2      29.92F
#MOXEE 2E       N/A         59  27  29  CALM    29.87F
#NACHES 2SW     N/A         58  41  53  NE5     29.95S
#OUTLOOK DOT    N/A         N/A N/A N/A W6      N/A
#SELAH 8E       N/A         59  36  42  NW2     N/A
#TERRACE HTS    N/A         63  42  46  CALM    29.88S
#TOPPENISH      N/A         60  42  51  SW5     29.83F
#WAPATO 4NE     N/A         64  34  33  S2      28.78S
#W YAKIMA       N/A         57  41  55  N2      29.91F
#WHITE SWAN 5E  N/A         62  41  46  E5      29.93S
#WILEY CITY 3W  N/A         61  35  38  CALM    29.91S
$$

WAZ028-042010-
LOWER COLUMBIA BASIN...WASHINGTON

CITY            SKY/WX      TMP DP  RH  WIND    PRES   REMARKS
HANFORD         MOCLDY      66  35  32  N7      29.92F
PASCO           SUNNY       65  42  43  N9      29.92F
#BENTON CITY    N/A         63  42  46  N5      29.81F
#CONNELL 5N     N/A         67  39  36  E2      29.90F
#CONNELL 5NW    N/A         65  39  38  CALM    29.87F
#ELTOPIA 6NW    N/A         64  44  48  N7      28.89F
#KAHLOTUS       N/A         63  37  38  S6      29.90F
#KENNEWICK      N/A         54  44  69  CALM    27.56S
#KENNEWICK 3S   N/A         64  42  45  NW1     29.90F
#PASCO-BROADMOORN/A         67  44  43  W2      29.81F
#PATERSON       N/A         66  42  42  NE5     29.88F
#PROSSER        N/A         63  38  39  NW3     29.90F
#SAGEMOOR 2W    N/A         63  45  52  NW3     29.75F
#TOUCHET 2S     N/A         66  43  43  NW5     29.88F
#WEST PASCO     N/A         65  46  50  NW2     29.89F
$$

WAZ029-042010-
FOOTHILLS OF THE BLUES...WASHINGTON

CITY            SKY/WX      TMP DP  RH  WIND    PRES   REMARKS
WALLA WALLA AP  PTCLDY      65  38  37  MISG    29.89F
#DAYTON SCHOOL  N/A         64  33  31  NW7     29.89F
#LOWDEN 2SE     N/A         66  43  43  N1      29.86F
#PLEASANT VIEW 1N/A         65  37  35  W1      29.91F
#PRESCOTT       N/A         67  43  42  CALM    29.88F
#SUDBURY        N/A         68  N/A N/A CALM    N/A
#WHITMAN COLLEGEN/A         63  41  44  N2      29.92F
#WAITSBURG 5S   N/A         63  38  39  NW6     29.96F
#WAITSBURG 8N   N/A         72  21  14  N8      29.76F
#WALLA WALLA U  N/A         66  42  42  CALM    29.87F
#WHITMAN MISSIONN/A         64  44  48  SW1     29.89F
$$

WAZ030-042010-
BLUE MOUNTAINS...WASHINGTON

CITY            SKY/WX      TMP DP  RH  WIND    PRES   REMARKS
#DIXIE 5SE      N/A         56  37  49  NW9     29.84F
#SKI BLUEWOOD   N/A         51  33  50  CALM    29.89F
$$

ORZ009-041-WAZ024-042010-
COLUMBIA RIVER GORGE

CITY            SKY/WX      TMP DP  RH  WIND    PRES   REMARKS
THE DALLES AP   MOCLDY      66  43  43  N10     29.91F
#ARLINGTON AIRPON/A         63  42  46  NE3     29.83S
#CELILO DOT     N/A         69  50  51  NW2     N/A
#MOSIER 1S      N/A         64  36  35  N7      29.93F
#RUFUS DOT      N/A         65  43  45  NW7     N/A

$$

ORZ510-042010-
NORTH CENTRAL OREGON

CITY            SKY/WX      TMP DP  RH  WIND    PRES   REMARKS
#CHENOWITH 1W   N/A         56  38  51  NW16    N/A
#DUFUR 9E       N/A         53  38  57  NW3     29.96S
#GRASS VALLEY 1SN/A         60  37  42  N6      29.93S
#KENT DOT       N/A         59  33  37  N1      N/A
#MAUPIN SCHOOL  N/A         64  41  43  CALM    29.93F
#MORO SCHOOL    N/A         58  43  57  NW7     29.93S
#SHANIKO 5WSW   N/A         55  34  45  NW10    N/A
#SHANIKO 4NW    N/A         53  34  48  VRB8    29.93S
#TYGH VALLEY 2NEN/A         64  42  45  E2      29.89F
#WAPANITIA AIRPON/A         62  38  41  CALM    29.91S
#WASCO DOT      N/A         65  43  45  W6      N/A
#WASCO AIRPORT  N/A         63  37  38  W6      N/A
#WASCO 5NE      N/A         62  40  44  CALM    29.90S
$$

ORZ511-042010-
CENTRAL OREGON

CITY            SKY/WX      TMP DP  RH  WIND    PRES   REMARKS
BEND AIRPORT    MOCLDY      54  34  47  N5      29.91F
PRINEVILLE AP   PTCLDY      59  36  42  W12     29.89F
REDMOND AIRPORT MOCLDY      58  35  42  N14     29.91F
#BEND 1SW       N/A         57  38  49  NE2     N/A
#BEND-AWBREY    N/A         56  40  55  N1      29.86F
#BEND-KIM LN    N/A         57  39  51  CALM    29.88F
#CULVER         N/A         57  37  47  N5      29.87F
#LAKE BILLY CHINN/A         59  -8   6  N5      29.95F
#MADRAS         N/A         57  37  47  N3      N/A
#POWELL BUTTE 3EN/A         52  38  59  NW5     N/A
#POWELL BUTTE   N/A         62  41  46  N5      29.53F
#PRINEVILLE 3N  N/A         58  42  55  W1      29.82F
#WARM SPRINGS   N/A         64  41  43  NE3     29.88F

$$


ORZ509-042010-
EAST SLOPES OF OREGON CASCADES

CITY            SKY/WX      TMP DP  RH  WIND    PRES   REMARKS
#CAMP SHERMAN   N/A         64  34  33  CALM    29.86F
#LA PINE 4NW    N/A         52  35  52  W1      29.94F
#LAVA BUTTE DOT N/A         54  31  41  NE2     N/A
#SISTERS AIRPOR N/A         57  43  59  N3      30.17S
#SISTERS 1NW    N/A         56  33  42  N13     N/A
#SISTERS 3N     N/A         56  36  47  CALM    29.96F
#SUNRIVER       N/A         54  36  50  E3      29.77F
#TUMALO 3W      N/A         53  36  52  NE3     29.78S

$$

ORZ044-042010-
LOWER COLUMBIA BASIN...OREGON

CITY            SKY/WX      TMP DP  RH  WIND    PRES   REMARKS
HERMISTON       PTCLDY      65  38  37  E5      29.90F
#BOARDMAN SCHOOLN/A         66  42  42  NE1     29.91F
#BOARDMAN 8SW   N/A         65  43  45  NE3     29.90F
#ECHO 8SW       N/A         63  40  43  CALM    29.92F
#IONE SCHOOL    N/A         61  39  44  CALM    29.89S
#IRRIGON 4NW    N/A         69  41  36  S3      N/A
#UMATILLA SCHOOLN/A         70  48  46  CALM    29.91F
#UMATILLA       N/A         68  40  36  N2      29.81F
$$

ORZ507-042010-
NORTHERN FOOTHILLS OF THE BLUES

CITY            SKY/WX      TMP DP  RH  WIND    PRES   REMARKS
PENDLETON AIRPT MOCLDY      61  37  41  SW7     29.90F
#ADAMS 3WNW     N/A         63  39  41  CALM    29.90F
#ATHENA         N/A         61  40  46  VRB1    29.91F
#CAYUSE         N/A         61  39  44  NW3     29.88F
#HELIX SCHOOL   N/A         61  38  42  N6      29.88F
#HELIX 3N       N/A         61  38  42  N8      29.88F
#HOLDMAN 5SE    N/A         63  41  44  W5      29.91F
#HOLDMAN 6E     N/A         62  38  41  SE6     29.69F
#M-F GROVE ELEM N/A         62  39  43  N3      29.88F
#M-FREEWATER 5SEN/A         62  44  52  NW3     29.90F
#PENDLETON DNTN N/A         66  38  36  S1      29.93S
#PDT AQUATIC CTRN/A         63  41  44  W3      29.85S
#PDT SUNRIDGE   N/A         63  40  43  SW2     29.91F
#PENDLETON 7NW  N/A         64  46  52  W2      28.83F
#PILOT ROCK     N/A         59  38  45  N1      29.93S
#TUTUILLA       N/A         63  41  44  N3      29.91F
#UMAPINE 2E     N/A         65  44  46  NW1     29.87F
#WESTON SCHOOL  N/A         59  36  42  E2      29.82F

$$

ORZ508-042010-
SOUTHERN FOOTHILLS OF THE BLUES

CITY            SKY/WX      TMP DP  RH  WIND    PRES   REMARKS
#AJAX           N/A         59  33  37  W2      29.86F
#CONDON 5W      N/A         52  35  52  N3      29.90S
#FOSSIL SCHOOL  N/A         66  51  58  CALM    29.94S
#HEPPNER EOC    N/A         58  39  49  W1      29.83F
#HEPPNER 4NE    N/A         55  38  53  W1      29.89F
#LEXINGTON 2SE  N/A         61  40  46  NW5     29.89F
#OLEX 4N        N/A         62  41  46  E7      29.91S
#RUGGS 5NE      N/A         58  37  45  N3      30.04F
#RUGGS 2SW      N/A         55  38  53  CALM    29.91F

$$

ORZ502-503-042010-
BLUE MOUNTAINS

CITY            SKY/WX      TMP DP  RH  WIND    PRES   REMARKS
MEACHAM         PTCLDY      56  34  43  N8      29.90F
#BATTLE MTN DOT N/A         50  40  68  N6      N/A
#HEPPNER 15SE   N/A         49  38  66  NW1     29.81F
#LONG CREEK HS  N/A         50  41  71  CALM    29.87F
#N POWDER DOT   N/A         61  42  50  NE6     N/A
#PIKES PEAK     N/A         53  39  59  N5      27.99S
#TOLLGATE       N/A         47  36  65  CALM    29.79F
#TROY SCHOOL    N/A         70  45  41  E1      29.69F
#UKIAH          N/A         53  36  52  SW5     29.96F
#WESTON 4E      N/A         56  38  51  N5      29.83F
$$

ORZ505-042010-
JOHN DAY BASIN

CITY            SKY/WX      TMP DP  RH  WIND    PRES   REMARKS
JOHN DAY        THUNDER     50  35  56  W8      29.92R
#JOHN DAY KJDY  N/A         51  49  93  W6      30.11R
#DAYVILLE SCHOOLN/A         48  33  56  N2      29.91R
#MITCHELL       N/A         55  40  57  CALM    30.08S
#MITCHELL 8NW   N/A         51  34  52  CALM    30.08S
#MONUMENT HS    N/A         51  36  56  CALM    29.93F
#MT. VERNON 5SE N/A         47  38  71  W2      29.87S
#SPRAY SCHOOL   N/A         57  N/A N/A CALM    N/A
$$

ORZ506-042010-
OCHOCO AND JOHN DAY HIGHLANDS

CITY            SKY/WX      TMP DP  RH  WIND    PRES   REMARKS
#PAULINA SCHOOL N/A         53  34  48  CALM    29.87F
#PINE MTN OBS   N/A         42  35  76  NW5     N/A
#PRAIRIE CITY   N/A         48  38  68  S1      29.93F
#SENECA         N/A         48  N/A N/A N3      N/A
#SENECA 9NW     N/A         48  39  71  W1      29.87S
$$

ORZ049-042010-
GRANDE RONDE VALLEY

CITY            SKY/WX      TMP DP  RH  WIND    PRES   REMARKS
LA GRANDE       MOCLDY      63  36  36  NW5     29.84F
#COVE           N/A         56  45  66  W1      29.88F
#COVE SCHOOL    N/A         58  42  55  CALM    29.89F
#ELGIN 3N       N/A         69  36  30  N5      29.83F
#ELGIN 1E       N/A         66  38  36  CALM    N/A
#ISLAND CITY 4N N/A         63  53  70  NW1     29.99F
#LADD CYN DOT   N/A         61  42  50  N3      N/A
#LA GRANDE ELEM N/A         62  36  38  NE5     29.88F
#UNION 1S       N/A         60  43  53  NE2     29.75F
$$

ORZ050-042010-
WALLOWA COUNTY

CITY            SKY/WX      TMP DP  RH  WIND    PRES   REMARKS
#ENTERPRISE HS  N/A         60  43  53  CALM    29.89F
#IMNAHA SCHOOL  N/A         65  46  50  N9      29.86F
#IMNAHA 10S     N/A         63  45  52  NE5     29.87F
#JOSEPH 3N      N/A         58  40  51  SE1     29.91F
#JOSEPH 3W      N/A         54  37  52  NE1     29.76F
#LOSTINE        N/A         60  41  49  E3      29.66F
#MT HOWARD 8000 N/A         38  32  79  N5      29.96S
#PROMISE 1S     N/A         56  40  55  SW7     29.95F
#WALLOWA SCHOOL N/A         64  41  43  CALM    29.84F



$$



USA.gov is the U.S. government's official web portal to all federal, state and local government web resources and services.